Kingstree, SC

9:02 AM EST on December 15, 2019 (GMT -0500)
Williamsburg County

Weather History for KCKI - October, 2019

Change the Weather History Date:

Thursday, October 31, 2019

  Actual Average Record
Temperature  
Mean Temperature 76 °F -  
Max Temperature 86 °F 71 °F 82 °F (2013)
Min Temperature 64 °F 45 °F 37 °F (2011)
Cooling Degree Days 11    
Growing Degree Days 26 (Base 50)    
Moisture  
Dew Point 70 °F    
Average Humidity 85    
Maximum Humidity 100    
Minimum Humidity 49    
Precipitation  
Precipitation 0.00 in - - ()
Sea Level Pressure  
Sea Level Pressure 29.95 in    
Wind  
Wind Speed 6 mph ()    
Max Wind Speed 22 mph    
Max Gust Speed 31 mph    
Visibility 7.6 miles    
Events Rain , Thunderstorm    
Averages and records for this station are not official NWS values.
T = Trace of Precipitation, MM = Missing Value Source: Averaged Metar Reports

Daily Weather History Graph

Daily Weather History Graph

Search for Another Location

Airport or City:

Astronomy

Oct. 31, 2019 Rise Set
Actual Time 7:37 AM EDT 6:28 PM EDT
Civil Twilight 7:11 AM EDT 6:53 PM EDT
Nautical Twilight 6:42 AM EDT 7:23 PM EDT
Astronomical Twilight 6:13 AM EDT 7:52 PM EDT
Moon 11:16 AM EDT (10/31) 9:31 PM EDT (10/31)
Length of Visible Light 11h 42m
Length of Day
10h 50m
Waxing Crescent, 15% of the Moon is Illuminated
Oct 31
Waxing Crescent
Nov 4
First Quarter
Nov 12
Full
Nov 19
Last Quarter
Nov 26
New

Hourly Weather History & Observations

Time (EDT) Temp. Heat Index Dew Point Humidity Pressure Visibility Wind Dir Wind Speed Gust Speed Precip Events Conditions
12:15 AM 69.8 °F - 69.8 °F 100% 30.06 in 7.0 mi Calm Calm - N/A   Overcast
12:35 AM 69.8 °F - 69.8 °F 100% 30.05 in 7.0 mi Calm Calm - N/A   Overcast
12:55 AM 69.8 °F - 69.8 °F 100% 30.05 in 7.0 mi Calm Calm - N/A   Overcast
1:15 AM 69.8 °F - 69.8 °F 100% 30.04 in 7.0 mi Calm Calm - N/A   Mostly Cloudy
1:35 AM 71.6 °F - 69.8 °F 94% 30.04 in 7.0 mi ESE 3.5 mph - N/A   Overcast
1:55 AM 71.6 °F - 69.8 °F 94% 30.03 in 7.0 mi ESE 3.5 mph - N/A   Overcast
2:15 AM 71.6 °F - 69.8 °F 94% 30.03 in 7.0 mi ESE 3.5 mph - N/A   Overcast
2:35 AM 71.6 °F - 69.8 °F 94% 30.02 in 7.0 mi ESE 3.5 mph - N/A   Scattered Clouds
2:55 AM 71.6 °F - 69.8 °F 94% 30.01 in 7.0 mi ESE 4.6 mph - N/A   Scattered Clouds
3:15 AM 71.6 °F - 69.8 °F 94% 30.01 in 7.0 mi SE 5.8 mph - N/A   Scattered Clouds
3:35 AM 71.6 °F - 69.8 °F 94% 30.01 in 7.0 mi SE 4.6 mph - N/A   Scattered Clouds
4:15 AM 71.6 °F - 69.8 °F 94% 30.00 in 7.0 mi SE 3.5 mph - N/A   Scattered Clouds
4:55 AM 71.6 °F - 69.8 °F 94% 30.00 in 10.0 mi SE 3.5 mph - N/A Rain Light Rain
5:35 AM 71.6 °F - 69.8 °F 94% 30.00 in 7.0 mi SE 5.8 mph - N/A Rain Light Rain
5:55 AM 71.6 °F - 69.8 °F 94% 30.00 in 10.0 mi SE 4.6 mph - N/A   Mostly Cloudy
6:15 AM 71.6 °F - 69.8 °F 94% 30.00 in 10.0 mi SE 5.8 mph - N/A   Mostly Cloudy
6:35 AM 71.6 °F - 69.8 °F 94% 30.00 in 7.0 mi ESE 5.8 mph - N/A   Scattered Clouds
6:55 AM 71.6 °F - 69.8 °F 94% 30.00 in 7.0 mi SE 5.8 mph - N/A   Scattered Clouds
7:15 AM 71.6 °F - 69.8 °F 94% 30.00 in 7.0 mi SE 5.8 mph - N/A   Scattered Clouds
7:35 AM 71.6 °F - 69.8 °F 94% 30.00 in 7.0 mi SE 6.9 mph - N/A   Scattered Clouds
7:55 AM 71.6 °F - 69.8 °F 94% 30.00 in 7.0 mi SE 5.8 mph - N/A   Mostly Cloudy
8:15 AM 71.6 °F - 69.8 °F 94% 30.00 in 5.0 mi SE 6.9 mph - N/A   Mostly Cloudy
8:35 AM 71.6 °F - 71.6 °F 100% 30.01 in 7.0 mi SSE 4.6 mph - N/A   Overcast
9:15 AM 73.4 °F - 71.6 °F 94% 30.01 in 7.0 mi SE 6.9 mph - N/A   Overcast
9:35 AM 75.2 °F - 73.4 °F 94% 30.01 in 7.0 mi SSE 8.1 mph - N/A   Overcast
9:55 AM 77.0 °F - 73.4 °F 89% 30.00 in 7.0 mi SSE 6.9 mph - N/A   Overcast
10:15 AM 77.0 °F - 77.0 °F 100% 30.00 in 7.0 mi SSE 8.1 mph - N/A   Overcast
10:35 AM 77.0 °F - 77.0 °F 100% 30.00 in 7.0 mi South 9.2 mph 18.4 mph N/A   Overcast
10:55 AM 78.8 °F - 77.0 °F 94% 30.00 in 7.0 mi South 9.2 mph 16.1 mph N/A   Overcast
11:15 AM 78.8 °F - 77.0 °F 94% 29.99 in 7.0 mi South 9.2 mph - N/A   Overcast
11:35 AM 80.6 °F 86.2 °F 75.2 °F 84% 29.98 in 7.0 mi South 10.4 mph 19.6 mph N/A   Overcast
11:55 AM 80.6 °F 85.4 °F 73.4 °F 79% 29.98 in 10.0 mi South 10.4 mph 19.6 mph N/A   Overcast
12:15 PM 80.6 °F 85.4 °F 73.4 °F 79% 29.97 in 10.0 mi South 9.2 mph - N/A   Mostly Cloudy
12:35 PM 82.4 °F 88.2 °F 73.4 °F 74% 29.95 in 10.0 mi South 9.2 mph - N/A   Mostly Cloudy
12:55 PM 82.4 °F 87.2 °F 71.6 °F 70% 29.94 in 7.0 mi South 13.8 mph 20.7 mph N/A   Mostly Cloudy
1:15 PM 84.2 °F 89.6 °F 71.6 °F 66% 29.93 in 7.0 mi South 12.7 mph 21.9 mph N/A   Mostly Cloudy
2:15 PM 86.0 °F 91.8 °F 71.6 °F 62% 29.90 in 5.0 mi SSE 12.7 mph 20.7 mph N/A   Haze
2:35 PM 86.0 °F 90.4 °F 69.8 °F 58% 29.89 in 7.0 mi South 10.4 mph 21.9 mph N/A   Mostly Cloudy
2:55 PM 84.2 °F 88.4 °F 69.8 °F 62% 29.89 in 10.0 mi South 13.8 mph 19.6 mph N/A   Mostly Cloudy
3:15 PM 86.0 °F 90.4 °F 69.8 °F 58% 29.88 in 7.0 mi SSE 11.5 mph 24.2 mph N/A   Mostly Cloudy
3:35 PM 86.0 °F 90.4 °F 69.8 °F 58% 29.87 in 7.0 mi South 13.8 mph 20.7 mph N/A   Scattered Clouds
3:55 PM 84.2 °F 88.4 °F 69.8 °F 62% 29.87 in 10.0 mi South 11.5 mph 19.6 mph N/A   Scattered Clouds
4:15 PM 84.2 °F 88.4 °F 69.8 °F 62% 29.86 in 10.0 mi SSE 10.4 mph 18.4 mph N/A   Mostly Cloudy
4:55 PM 82.4 °F 86.3 °F 69.8 °F 66% 29.85 in 7.0 mi SSE 12.7 mph 17.3 mph N/A   Scattered Clouds
5:15 PM 82.4 °F 86.3 °F 69.8 °F 66% 29.84 in 7.0 mi SE 9.2 mph 17.3 mph N/A   Scattered Clouds
5:35 PM 80.6 °F 84.6 °F 71.6 °F 74% 29.85 in 10.0 mi SE 9.2 mph - N/A   Scattered Clouds
5:55 PM 80.6 °F 84.6 °F 71.6 °F 74% 29.85 in 7.0 mi SE 9.2 mph - N/A   Clear
6:15 PM 78.8 °F - 73.4 °F 83% 29.85 in 7.0 mi SE 9.2 mph - N/A   Clear
6:35 PM 78.8 °F - 73.4 °F 83% 29.86 in 10.0 mi SE 11.5 mph 16.1 mph N/A   Clear
6:55 PM 78.8 °F - 73.4 °F 83% 29.86 in 7.0 mi SE 12.7 mph 16.1 mph N/A   Clear
7:15 PM 77.0 °F - 73.4 °F 89% 29.86 in 7.0 mi SSE 13.8 mph 18.4 mph N/A   Clear
7:35 PM 77.0 °F - 73.4 °F 89% 29.86 in 7.0 mi SE 10.4 mph 17.3 mph N/A   Clear
7:55 PM 77.0 °F - 75.2 °F 94% 29.84 in 10.0 mi SE 10.4 mph - N/A Thunderstorm Clear
8:15 PM 77.0 °F - 73.4 °F 89% 29.83 in 7.0 mi SE 9.2 mph - N/A Thunderstorm Thunderstorm
8:35 PM 73.4 °F - 71.6 °F 94% 29.87 in 3.0 mi SSW 21.9 mph 31.1 mph N/A Rain , Thunderstorm Heavy Thunderstorms and Rain
8:55 PM 71.6 °F - 69.8 °F 94% 29.88 in 3.0 mi SSW 8.1 mph - N/A Rain Light Rain
9:35 PM 71.6 °F - 69.8 °F 94% 29.88 in 10.0 mi SSW 4.6 mph - N/A Thunderstorm Overcast
9:55 PM 71.6 °F - 69.8 °F 94% 29.90 in 7.0 mi SSW 10.4 mph - N/A   Overcast
10:15 PM 71.6 °F - 69.8 °F 94% 29.90 in 7.0 mi SW 5.8 mph - N/A   Overcast
10:35 PM 69.8 °F - 62.6 °F 78% 29.93 in 7.0 mi WSW 16.1 mph 27.6 mph N/A   Overcast
10:55 PM 68.0 °F - 62.6 °F 83% 29.95 in 10.0 mi WSW 10.4 mph - N/A Thunderstorm Overcast
11:15 PM 68.0 °F - 55.4 °F 64% 29.96 in 10.0 mi WSW 9.2 mph 18.4 mph N/A   Overcast
11:35 PM 66.2 °F - 48.2 °F 52% 29.97 in 7.0 mi West 11.5 mph 17.3 mph N/A   Overcast
11:55 PM 64.4 °F - 44.6 °F 49% 29.98 in 10.0 mi West 13.8 mph 24.2 mph N/A   Overcast